Home > Time Zones > World Clock > Weather > Italy > Parma > Past weeks

Flag for Italy Weather past 2 weeks in Parma, Italy

Now
66 °F

Clear.


Feels Like: 66 °F
Forecast: 56 / 84 °F
Wind: 2 mph from North

Location: Parma

Current Time: Aug 29, 2014 at 1:47:42 AM

Latest Report: Aug 28, 2014 at 11:50 PM


Visibility: 10 mi

Pressure: 30.09 "Hg

Humidity: 88%

Dew point: 63 °F

Location of ParmaLocation

Historic Weather in Parma — Graph

°F

Parma temperature yesterday

Maximum temperature yesterday: 79 °F (at 5:50 PM)
Minimum temperature yesterday: 66 °F (at 7:50 AM)
Average temperature yesterday: 72 °F

Past Weeks' High & Low Weather Summary

 TemperatureHumidityPressure
High84 °F (Aug 27, 3:50 PM)100% (Aug 20, 6:00 AM)30.12 "Hg (Aug 20, 6:00 AM)
Low55 °F (Aug 17, 6:00 AM)32% (Aug 17, 3:50 PM)29.77 "Hg (Aug 13, 11:50 PM)
Average71 °F70%29.95 "Hg
* Reported Aug 13 11:50 PM — Aug 28 11:50 PM, Parma, Weather by CustomWeather, © 2014

Note: Actual official high and low records may vary slightly from our data, if they occured in-between our weather recording intervals... More about our weather records

Advertising

Parma weather history for previous 24 hours

 ConditionsComfort  
Time TempWeatherWind HumidityBarometerVisibility
11:50 PM
Aug 28
66 °FClear.2 mph88%30.09 "Hg10 mi
10:50 PM66 °FClear.1 mph88%30.07 "Hg10 mi
9:50 PM70 °FClear.3 mph78%30.07 "Hg10 mi
8:50 PM72 °FSunny.3 mph73%30.07 "Hg10 mi
7:50 PM75 °FSunny.3 mph65%30.04 "Hg10 mi
6:50 PM77 °FPassing clouds.5 mph61%30.04 "HgN/A
5:50 PM79 °FScattered clouds.6 mph58%30.04 "HgN/A
4:50 PM77 °FScattered clouds.5 mph61%30.04 "HgN/A
3:50 PM75 °FScattered clouds.8 mph65%30.07 "HgN/A
2:50 PM75 °FPartly sunny.6 mph61%30.07 "HgN/A
1:50 PM75 °FPartly sunny.8 mph65%30.07 "HgN/A
12:50 PM73 °FPartly sunny.8 mph69%30.07 "HgN/A
11:50 AM72 °FPartly sunny.8 mph73%30.07 "HgN/A
10:50 AM70 °FScattered clouds.8 mph78%30.07 "HgN/A
9:50 AM68 °FPartly sunny.10 mph78%30.07 "HgN/A
8:50 AM66 °FScattered clouds.9 mph83%30.04 "HgN/A
7:50 AM66 °FScattered clouds.10 mph83%30.01 "HgN/A
6:50 AM68 °FPartly cloudy.12 mph88%30.01 "HgN/A
6:00 AM68 °FFog.9 mph94%29.98 "Hg2 mi
Weather by CustomWeather, © 2014

See weather overviewHow to use our weather pages